Location: La Comballaz
(46.3780°N, 7.0817°E)
Time: 03:31:05
(UTC+00:00)

Envisat - Pass Details

Date: 12 December 2021
Orbit: 764 x 766 km, 98.2° (Epoch: 16 January)

Event Time Altitude Azimuth Distance (km) Brightness Sun altitude
Rises 16:51:11 0° 208° (SSW) 3,221 7.1 -10.9°
Reaches altitude 10° 16:54:10 10° 226° (SW) 2,300 6.7 -11.4°
Maximum altitude 16:57:40 19° 270° (W) 1,788 5.9 -12.0°
Drops below altitude 10° 17:01:10 10° 314° (NW) 2,312 5.8 -12.5°
Sets 17:04:12 0° 332° (NNW) 3,244 6.3 -13.0°
